Vorticity
nan nan nan nan nan nan nan nan nan nan nan nan nan nan nan nan nan nan nan nan nan nan nan nan nan nan nan nan nan nan nan nan nan nan nan nan nan nan nan nan nan nan nan
nan 9 9 9 8 8 9 10 11 10 8 9 9 8 9 9 9 9 8 9 9 9 9 9 8 9 10 9 9 10 10 10 13 11 10 13 10 7 11 7 6 9 nan
nan 10 10 9 10 10 10 9 8 8 8 9 9 10 10 9 10 10 9 9 10 10 10 9 9 8 8 9 10 12 12 11 9 8 10 10 10 9 9 8 9 8 nan
nan 12 11 11 10 10 9 9 8 9 9 9 9 9 9 11 12 11 12 10 9 10 9 10 12 13 15 15 10 9 10 11 11 9 10 10 9 8 6 8 10 8 nan
nan 12 11 10 10 9 9 9 8 8 9 10 10 10 10 12 16 16 11 12 11 9 10 8 8 10 13 16 17 19 16 10 12 12 9 8 9 9 8 8 8 8 nan
nan 12 10 9 8 8 8 8 10 10 10 13 15 15 15 10 11 18 19 15 11 9 7 8 7 8 2 5 12 12 15 21 17 10 11 9 9 5 11 11 8 8 nan
nan 11 9 9 9 10 11 10 10 11 10 11 12 14 16 15 12 11 15 17 12 12 12 11 7 8 9 5 5 7 6 11 13 19 16 9 11 10 8 9 8 7 nan
nan 8 11 13 13 9 10 12 10 12 12 10 9 11 10 11 12 8 11 14 10 10 12 14 15 8 9 11 9 9 7 9 13 15 15 21 19 15 9 8 11 6 nan
nan 10 11 12 11 10 9 9 9 10 9 10 12 11 12 13 11 7 7 9 10 9 8 9 13 12 9 10 14 12 8 6 9 11 11 13 17 16 22 19 11 12 nan
nan 8 9 10 11 11 11 10 9 10 12 11 10 11 12 11 9 7 10 10 8 7 7 5 10 13 10 12 15 11 9 8 11 9 8 6 6 6 13 22 21 12 nan
nan 11 8 10 12 11 10 9 11 11 11 9 9 10 11 11 9 7 10 14 11 9 9 9 10 11 11 10 14 17 15 10 10 9 9 9 7 7 6 10 15 20 nan
nan 9 8 8 9 10 10 11 11 9 8 9 8 8 10 12 10 9 7 12 16 14 11 14 14 12 10 12 15 14 10 10 10 11 11 11 10 8 9 10 10 13 nan
nan 8 9 9 9 10 9 9 8 10 9 9 8 9 10 9 9 9 10 9 11 15 15 15 11 7 8 11 10 4 6 10 12 11 10 10 11 11 10 9 8 8 nan
nan 9 9 9 9 10 10 10 10 12 10 10 11 11 10 9 10 10 9 9 9 12 14 7 5 7 8 8 7 8 10 11 12 11 11 11 11 10 9 9 8 7 nan
nan 10 9 10 10 7 7 13 15 13 17 17 14 13 12 14 14 14 12 12 11 10 7 8 9 9 8 7 8 11 11 11 10 11 10 9 10 10 11 11 10 9 nan
nan 10 10 10 11 10 9 4 8 13 13 14 17 15 15 19 14 9 11 15 15 8 5 8 9 9 10 10 10 10 11 11 10 10 10 10 9 10 9 10 11 11 nan
nan 11 9 10 11 11 10 9 4 3 7 10 11 13 16 12 10 9 10 10 7 3 9 11 11 10 10 10 10 10 11 10 10 11 11 11 10 10 10 10 10 10 nan
nan 15 11 11 11 12 12 11 12 10 7 8 10 12 13 14 10 10 7 3 5 9 11 11 10 10 10 10 11 11 11 10 10 10 11 11 12 11 10 10 11 10 nan
nan 10 11 11 12 12 12 12 10 11 11 10 10 12 14 12 9 10 1 2 11 11 10 11 12 11 11 11 11 12 11 10 11 10 11 10 10 11 11 10 11 11 nan
nan 12 11 11 11 10 11 11 10 10 10 10 10 11 12 7 8 8 7 10 11 11 11 11 12 12 12 11 11 11 10 11 10 10 10 10 10 11 12 11 11 10 nan
nan 12 10 11 12 11 11 11 10 10 10 11 12 13 10 6 10 9 11 11 12 11 11 10 11 11 11 12 12 11 11 10 10 11 11 10 10 11 11 11 10 10 nan
nan 12 11 11 12 12 10 10 11 11 12 12 12 13 8 9 11 10 11 10 10 12 12 14 12 12 12 12 11 11 11 11 11 11 11 11 11 11 10 11 10 10 nan
nan 11 11 12 12 11 10 11 12 12 12 12 11 11 9 11 12 12 12 11 10 9 12 14 11 12 12 12 13 12 11 12 11 12 11 10 11 11 11 11 10 11 nan
nan 12 12 11 11 10 11 11 12 13 12 12 10 11 11 11 11 11 11 10 11 13 12 10 12 14 12 11 11 11 15 15 12 12 11 11 10 11 10 11 11 10 nan
nan 12 12 11 11 11 11 11 11 12 11 11 11 12 12 11 11 10 10 11 12 13 11 10 12 13 12 11 10 12 14 12 12 11 11 11 12 10 10 10 11 12 nan
nan nan nan nan nan nan nan nan nan nan nan nan nan nan nan nan nan nan nan nan nan nan nan nan nan nan nan nan nan nan nan nan nan nan nan nan nan nan nan nan nan nan nan
CAPE
154 142 101 89 83 108 127 161 181 177 146 77 54 35 18 20 12 5 3 6 5 5 3 1 0 0 0 0 0 0 0 20 39 0 0 0 6 2 0 0 0 3 5
199 149 141 171 100 112 107 86 99 85 62 29 22 41 45 26 40 24 8 4 3 4 3 0 0 0 0 0 0 0 2 9 19 0 0 0 4 0 1 0 2 2 5
142 150 150 129 88 81 45 25 27 21 18 21 19 23 17 22 4 16 10 8 0 1 0 0 0 0 1 0 0 0 0 3 2 0 0 2 1 0 3 5 6 1 2
2 40 144 95 9 0 0 0 0 0 0 2 11 17 7 5 5 6 8 6 3 0 0 0 0 0 2 4 2 0 0 0 0 7 0 0 0 6 2 8 19 9 4
0 18 23 5 0 0 0 0 0 0 0 0 4 4 3 9 12 15 10 2 2 2 2 0 0 0 0 0 0 2 2 0 1 0 7 4 3 8 8 8 16 7 2
0 0 0 0 0 0 0 0 0 0 0 2 4 2 6 4 0 0 0 6 1 4 2 0 0 0 0 0 0 0 0 1 6 0 0 1 5 2 18 16 18 22 15
0 0 0 0 0 0 0 0 0 1 5 1 1 1 0 0 0 0 0 1 3 5 1 2 1 0 0 1 0 0 0 0 0 0 5 5 9 11 7 19 23 15 3
0 0 0 0 0 0 1 2 2 2 9 3 4 8 4 0 0 0 0 4 5 0 0 2 1 1 0 0 2 1 2 2 0 0 1 14 13 11 12 11 14 16 2
3 4 4 5 2 2 1 4 5 9 2 1 6 1 3 4 0 0 1 3 3 7 2 1 1 3 0 0 1 3 8 7 2 0 1 0 0 0 1 7 12 6 9
2 2 3 2 2 2 5 6 13 12 10 2 0 1 2 1 1 1 5 8 7 8 5 3 0 2 0 0 6 9 18 7 13 10 7 4 1 0 0 1 40 3 20
0 0 2 6 5 4 3 17 5 10 3 0 3 1 1 2 7 2 1 15 13 7 5 7 2 0 0 0 1 23 12 6 5 7 7 8 4 7 6 6 5 6 30
0 0 2 3 2 4 5 8 6 2 7 6 6 6 3 1 2 0 0 2 1 23 23 15 2 1 1 0 1 0 0 4 17 17 18 16 14 8 7 4 2 3 3
0 0 5 4 3 4 8 5 9 14 9 8 9 9 7 4 11 0 0 0 0 20 29 7 3 4 4 4 1 0 0 11 15 13 16 16 9 12 8 5 3 3 4
4 1 5 4 5 6 4 4 12 14 12 9 12 12 12 15 13 12 4 4 2 7 4 15 7 7 13 4 1 2 18 20 17 12 11 16 13 11 10 9 8 8 6
4 3 4 8 4 6 5 5 4 0 1 5 9 7 10 12 13 6 6 3 24 15 16 10 16 19 19 14 15 12 5 9 14 12 12 15 12 9 11 16 14 14 6
1 1 2 6 5 6 8 5 0 0 0 0 0 6 17 3 0 0 0 1 1 0 13 21 20 26 15 15 13 12 13 5 8 7 9 8 9 8 7 8 7 11 10
4 4 2 3 5 6 7 3 9 6 0 0 0 0 1 1 1 2 1 2 2 0 19 21 21 26 24 11 7 6 7 6 1 9 10 12 15 12 12 10 11 8 7
11 0 6 7 10 13 11 26 25 3 9 12 1 2 1 3 4 0 1 1 4 2 11 15 17 16 7 5 2 2 3 3 5 4 8 11 12 6 10 7 5 8 4
3 5 8 5 6 12 19 14 15 15 9 10 12 6 9 3 6 3 1 23 13 10 8 9 14 9 6 4 8 11 14 14 15 16 14 12 15 6 7 4 2 0 0
6 0 5 10 11 15 15 15 17 9 5 7 11 10 17 12 17 16 16 33 18 9 7 5 3 4 5 8 19 27 24 16 15 15 20 19 17 8 4 3 4 2 0
21 15 2 10 8 11 13 18 13 5 8 6 13 22 7 13 23 16 12 22 20 16 16 12 8 9 15 16 16 22 14 15 11 11 13 15 22 12 6 5 5 1 0
7 6 7 7 10 7 14 9 3 8 7 14 16 14 2 19 24 21 22 22 13 9 8 15 14 14 13 12 15 29 22 23 15 12 13 12 14 15 9 9 8 8 3
7 9 6 4 15 6 8 6 15 21 16 20 13 8 15 39 28 21 25 27 17 17 9 17 23 17 19 21 25 27 26 23 18 17 14 12 9 15 13 12 7 13 17
7 6 3 11 12 9 22 29 20 7 13 19 14 11 17 32 33 31 28 24 15 16 22 23 23 22 22 30 29 25 19 18 13 9 9 14 9 5 12 12 14 10 13
14 20 23 10 15 17 17 13 14 23 15 11 14 19 23 23 25 23 24 16 16 20 18 19 26 13 9 16 17 10 0 0 1 5 4 8 7 5 7 11 11 13 3
16 12 12 10 16 15 13 11 9 9 11 12 12 17 17 19 22 24 19 11 12 16 12 20 13 6 2 5 5 0 0 0 0 0 10 12 17 17 14 9 7 10 10